Zurück zum Katalog

CZ-11 DEB

AktivVLEO
NORAD 66377·DEBRIS·🇨🇳 China

Gestartet Nov 8, 2025 von Yellow Sea Launch Area

Loading…

Nächste Überflüge (nächste 24 Stunden)

TLE

AlterndSource: Space-Track

Epoche: Sep 13, 2026, 11:58 UTC

1 66377U 25255B   26256.49867866  .00262224  00000-0  90318-3 0  9995
2 66377  52.9814 276.7213 0003549  42.0713 318.0583 15.88358635 48110

Verfolge CZ-11 DEB in Echtzeit mit AllMySat

Download on the App Store